Weather History for Mount Ida, AR

Change the Weather History Date:

Thursday, April 21, 2011

  Actual Average (KHOT) Record (KHOT)
Temperature  
Mean Temperature 54 °F -  
Max Temperature 59 °F 74 °F 97 °F (1987)
Min Temperature 50 °F 50 °F 37 °F (1966)
Degree Days  
Heating Degree Days 12    
Growing Degree Days 4 (Base 50)    
Moisture  
Dew Point 52 °F    
Average Humidity 97    
Maximum Humidity 100    
Minimum Humidity 88    
Precipitation  
Precipitation 3.20 in - - ()
Sea Level Pressure  
Sea Level Pressure 30.05 in    
Wind  
Wind Speed 4 mph (East)    
Max Wind Speed 10 mph    
Max Gust Speed 22 mph    
Visibility 5 miles    
Events Rain    
Averages and records for this station are not official NWS values.
T = Trace of Precipitation, MM = Missing Value Source: NWS Daily Summary

Daily Weather History Graph

Daily Weather History Graph

Search for Another Location

Airport:

Trip Planner

Search our weather history database for the weather conditions in past years. The results will help you decide how hot, cold, wet, or windy it might be!

Date:

Astronomy

Apr. 21, 2011 Rise Set
Actual Time 6:35 AM CDT 7:50 PM CDT
Civil Twilight 6:09 AM CDT 8:17 PM CDT
Nautical Twilight 5:38 AM CDT 8:48 PM CDT
Astronomical Twilight 5:05 AM CDT 9:21 PM CDT
Moon No Moon Rise 9:15 AM CDT (4/21)
Length of Visible Light 14h 07m
Length of Day
13h 15m
Waning Gibbous, 83% of the Moon is Illuminated
Apr 21
Waning Gibbous
Apr 24
Last Quarter
May 3
New
May 10
First Quarter
May 17
Full

Hourly Weather History & Observations

Time (CDT) Temp. Dew Point Humidity Pressure Visibility Wind Dir Wind Speed Gust Speed Precip Events Conditions
12:53 AM 53.1 °F 51.1 °F 93% 30.09 in 10.0 mi Variable 4.6 mph - N/A   Mostly Cloudy
1:53 AM 52.0 °F 51.1 °F 97% 30.09 in 6.0 mi Variable 4.6 mph - 0.06 in Rain Rain
2:53 AM 51.1 °F 50.0 °F 96% 30.14 in 1.2 mi Calm Calm - 0.34 in Rain Heavy Rain
3:03 AM 51.8 °F 50.0 °F 94% 30.09 in 1.0 mi Variable 5.8 mph - 0.25 in Rain Heavy Rain
3:35 AM 50.0 °F 48.2 °F 94% 30.16 in 3.0 mi WNW 10.4 mph 16.1 mph 0.75 in Rain Rain
3:47 AM 50.0 °F 48.2 °F 94% 30.20 in 1.2 mi Variable 3.5 mph - 0.82 in Rain Heavy Rain
3:53 AM 50.0 °F 48.9 °F 96% 30.15 in 1.0 mi NE 4.6 mph - 1.00 in Rain Heavy Rain
4:01 AM 50.0 °F 48.2 °F 94% 30.08 in 1.8 mi East 8.1 mph - 0.11 in Rain Heavy Rain
4:09 AM 50.0 °F 48.2 °F 94% 30.08 in 2.5 mi South 8.1 mph - 0.18 in Rain Heavy Rain
4:16 AM 50.0 °F 48.2 °F 94% 30.07 in 4.0 mi Variable 4.6 mph - 0.19 in Rain Rain
4:26 AM 50.0 °F 48.2 °F 94% 30.05 in 9.0 mi East 8.1 mph - 0.20 in Rain Light Rain
4:33 AM 50.0 °F 48.2 °F 94% 30.04 in 9.0 mi East 9.2 mph 16.1 mph 0.20 in Rain Light Rain
4:53 AM 50.0 °F 48.9 °F 96% 30.08 in 10.0 mi Variable 4.6 mph 21.9 mph 0.21 in   Overcast
5:53 AM 50.0 °F 48.9 °F 96% 30.09 in 10.0 mi Calm Calm - 0.00 in   Overcast
6:00 AM 50.0 °F 48.2 °F 94% 30.09 in 10.0 mi Calm Calm - N/A   Overcast
6:53 AM 51.1 °F 48.9 °F 92% 30.12 in 10.0 mi Calm Calm - N/A   Overcast
7:20 AM 51.8 °F 48.2 °F 88% 30.13 in 10.0 mi Calm Calm - N/A   Overcast
7:53 AM 51.1 °F 48.9 °F 92% 30.11 in 10.0 mi Variable 4.6 mph - N/A   Overcast
8:53 AM 51.1 °F 50.0 °F 96% 30.11 in 10.0 mi East 5.8 mph - N/A   Overcast
9:53 AM 51.1 °F 50.0 °F 96% 30.12 in 8.0 mi East 4.6 mph - N/A   Overcast
10:22 AM 51.8 °F 51.8 °F 100% 30.10 in 6.0 mi Variable 3.5 mph - N/A   Overcast
10:53 AM 52.0 °F 51.1 °F 97% 30.12 in 5.0 mi Calm Calm - N/A   Overcast
11:53 AM 52.0 °F 51.1 °F 97% 30.11 in 2.5 mi Variable 3.5 mph - N/A   Overcast
12:02 PM 53.6 °F 51.8 °F 94% 30.11 in 3.0 mi Calm Calm - N/A   Overcast
12:44 PM 51.8 °F 51.8 °F 100% 30.09 in 2.0 mi Variable 4.6 mph - N/A   Mist
12:53 PM 52.0 °F 51.1 °F 97% 30.10 in 2.0 mi ENE 3.5 mph - 0.00 in Rain Light Rain
1:41 PM 51.8 °F 51.8 °F 100% 30.09 in 1.2 mi SSE 4.6 mph - 0.05 in Rain Heavy Rain
1:53 PM 52.0 °F 52.0 °F 100% 30.08 in 1.5 mi ESE 4.6 mph - 0.13 in Rain Heavy Rain
2:21 PM 51.8 °F 51.8 °F 100% 30.06 in 1.5 mi Calm Calm - 0.35 in Rain Heavy Rain
2:29 PM 51.8 °F 51.8 °F 100% 30.05 in 2.5 mi East 4.6 mph - 0.38 in Rain Heavy Rain
2:48 PM 51.8 °F 51.8 °F 100% 30.06 in 1.8 mi Calm Calm - 0.50 in Rain Heavy Rain
2:53 PM 52.0 °F 52.0 °F 100% 30.05 in 1.2 mi East 4.6 mph - 0.55 in Rain Heavy Rain
3:11 PM 51.8 °F 51.8 °F 100% 30.06 in 1.8 mi Calm Calm - 0.16 in Rain Heavy Rain
3:31 PM 51.8 °F 51.8 °F 100% 30.05 in 2.0 mi Calm Calm - 0.33 in Rain Light Rain
3:38 PM 53.6 °F 51.8 °F 94% 30.01 in 1.2 mi ESE 5.8 mph - 0.44 in Rain Heavy Rain
3:46 PM 53.6 °F 51.8 °F 94% 30.01 in 2.0 mi Calm Calm - 0.49 in Rain Rain
3:53 PM 53.1 °F 53.1 °F 100% 30.02 in 4.0 mi Calm Calm - 0.50 in Rain Light Rain
4:18 PM 53.6 °F 53.6 °F 100% 30.00 in 1.8 mi Calm Calm - 0.07 in Rain Heavy Rain
4:30 PM 53.6 °F 53.6 °F 100% 29.98 in 3.0 mi Calm Calm - 0.17 in Rain Rain
4:35 PM 53.6 °F 53.6 °F 100% 29.99 in 1.8 mi ESE 3.5 mph - 0.18 in Rain Heavy Rain
4:46 PM 55.4 °F 53.6 °F 94% 29.98 in 3.0 mi East 3.5 mph - 0.30 in Rain Light Rain
4:53 PM 55.0 °F 55.0 °F 100% 29.98 in 7.0 mi East 4.6 mph - 0.31 in Rain Light Rain
5:28 PM 55.4 °F 55.4 °F 100% 29.97 in 1.8 mi Calm Calm - 0.05 in Rain Heavy Rain
5:39 PM 55.4 °F 55.4 °F 100% 29.98 in 3.0 mi NW 4.6 mph - 0.09 in Rain Light Rain
5:46 PM 55.4 °F 55.4 °F 100% 29.97 in 6.0 mi Variable 3.5 mph - 0.09 in Rain Light Rain
5:53 PM 55.0 °F 55.0 °F 100% 29.96 in 9.0 mi Calm Calm - 0.10 in Rain Light Rain
6:53 PM 57.0 °F 57.0 °F 100% 29.94 in 10.0 mi Variable 6.9 mph - 0.00 in   Unknown
7:04 PM 57.2 °F 57.2 °F 100% 29.93 in 10.0 mi Variable 5.8 mph - N/A   Overcast
7:53 PM 57.9 °F 57.9 °F 100% 29.92 in 10.0 mi Calm Calm - N/A   Overcast
8:53 PM 57.9 °F 57.0 °F 97% 29.94 in 10.0 mi East 4.6 mph - N/A   Overcast
9:18 PM 57.2 °F 57.2 °F 100% 29.93 in 9.0 mi East 3.5 mph - N/A   Overcast
9:53 PM 57.0 °F 55.9 °F 96% 29.93 in 9.0 mi ESE 4.6 mph - N/A   Overcast
10:53 PM 57.0 °F 55.9 °F 96% 29.95 in 10.0 mi Variable 3.5 mph - N/A   Overcast
11:53 PM 57.0 °F 57.0 °F 100% 29.94 in 3.0 mi SE 4.6 mph - N/A   Mist